Location: South Tamworth Observatory
(43.8246°N, 71.3026°W)
Time: 19:35:48
(UTC-04:00)

Amateur Radio Satellites - All Passes

Search period start: 18 April 2015 19:05
Search period end: 19 April 2015 19:05
Location: South Tamworth Observatory, 43.8246°N, 71.3026°W

Satellite Date Start Highest point End Downlink Frequencies (MHz)
Time Altitude Azimuth
Cosmos 2499 18 Apr 19:08:21 19:16:55 59° 92° (E) 19:25:30 435.465 / 435.565
HO-68 18 Apr 19:10:26 19:16:09 27° 58° (ENE) 19:22:02 435.675
DANDE 18 Apr 19:14:08 19:16:50 33° 289° (WNW) 19:20:09 436.750
CUBESAT XI-V 18 Apr 19:25:07 19:29:45 86° 284° (WNW) 19:34:21 437.345
CUSAT 1 18 Apr 19:27:22 19:29:48 19° 296° (WNW) 19:32:35 437.405
M-CUBED/EXP-1 PRIME 18 Apr 19:27:39 19:32:09 61° 292° (WNW) 19:36:17 437.505
STRAND 1 18 Apr 19:33:46 19:38:46 54° 100° (E) 19:43:45 437.568
BRITE-PL 18 Apr 19:41:28 19:45:18 38° 71° (ENE) 19:49:12 437.365/2234.400
ISS 18 Apr 19:45:45 19:48:43 31° 18° (NNE) 19:51:40 145.825
DOVE 4 18 Apr 19:47:44 19:50:46 20° 66° (ENE) 19:53:59 437.250
CINEMA 3 18 Apr 19:54:51 19:56:46 13° 62° (ENE) 19:58:54 145.822/145.860
COMPASS 1 18 Apr 20:07:17 20:10:46 26° 68° (ENE) 20:14:19 437.405
GOMX 1 18 Apr 20:09:30 20:13:29 49° 73° (ENE) 20:17:36 467.674
PRISM 18 Apr 20:10:31 20:14:25 41° 289° (WNW) 20:18:15 437.425
CANX-2 18 Apr 20:14:26 20:18:34 48° 73° (ENE) 20:22:45 2200.000
AUBIESAT-1 18 Apr 20:18:13 20:21:45 23° 301° (WNW) 20:25:01 437.475
SEEDS 18 Apr 20:19:38 20:23:38 41° 72° (ENE) 20:27:43 437.485
CUTE 1.7 + AOD 2 18 Apr 20:24:44 20:28:57 57° 73° (ENE) 20:33:11 437.475
PCSat 18 Apr 20:25:24 20:29:52 26° 251° (WSW) 20:34:13 145.827
YUBILEINY 18 Apr 20:34:06 20:37:14 13° 50° (NE) 20:40:59 435.215
VERMONT LUNAR 18 Apr 20:35:28 20:38:25 27° 161° (SSE) 20:41:22 437.305
UKube-1 18 Apr 20:44:55 20:45:40 11° 60° (ENE) 20:46:39 .
CUBEBUG 2 18 Apr 20:45:45 20:49:06 23° 67° (ENE) 20:52:39 437.445
ZACube-1 18 Apr 20:46:19 20:48:56 16° 64° (ENE) 20:51:43 437.345
AAUSAT CUBESAT 2 18 Apr 20:55:46 20:59:59 74° 76° (ENE) 21:04:14 437.432
HO-68 18 Apr 20:56:14 21:03:23 67° 257° (WSW) 21:10:35 435.675
Cosmos 2499 18 Apr 21:02:34 21:10:35 35° 292° (WNW) 21:18:22 435.465 / 435.565
Oscar 11 18 Apr 21:02:49 21:06:54 42° 71° (ENE) 21:11:03 145.826/435.025
CUBESAT XI-V 18 Apr 21:05:25 21:06:32 11° 300° (WNW) 21:07:24 437.345
RS-15 18 Apr 21:05:39 21:14:34 26° 8° (N) 21:23:50 29.354- 29.394
STRAND 1 18 Apr 21:13:49 21:17:38 21° 297° (WNW) 21:21:19 437.568
BRITE-PL 18 Apr 21:21:12 21:24:06 18° 269° (W) 21:26:55 437.365/2234.400
ISS 18 Apr 21:22:02 21:25:13 53° 217° (SW) 21:28:24 145.825
DELFI C3 18 Apr 21:22:27 21:26:25 51° 73° (ENE) 21:30:25 145.870
DX 1 18 Apr 21:23:24 21:27:01 27° 67° (ENE) 21:30:43 434.975-435.025
PHONESAT 2.4 18 Apr 21:23:46 21:26:49 27° 160° (SSE) 21:29:53 2401.200-2431.200
DOVE 4 18 Apr 21:24:28 21:28:20 37° 263° (W) 21:32:20 437.250
SO-50 18 Apr 21:25:10 21:29:41 34° 45° (NE) 21:34:12 436.795
UWE-3 18 Apr 21:27:47 21:31:55 51° 73° (ENE) 21:36:13 435.000/436.395/437.385
CINEMA 3 18 Apr 21:29:15 21:33:26 67° 259° (W) 21:37:49 145.822/145.860
COMPASS 1 18 Apr 21:42:37 21:46:23 30° 265° (W) 21:50:07 437.405
HUMSAT D 18 Apr 21:44:13 21:47:54 31° 69° (ENE) 21:51:40 437.325/437.525
GOMX 1 18 Apr 21:49:44 21:52:05 14° 272° (W) 21:54:17 467.674
CANX-2 18 Apr 21:52:04 21:54:50 16° 270° (W) 21:57:27 2200.000
SEEDS 18 Apr 21:56:38 21:59:41 18° 269° (W) 22:02:38 437.485
FUNcube-1 18 Apr 21:58:26 22:02:43 88° 72° (ENE) 22:07:06 145.935
VELOX 1 18 Apr 21:59:04 22:02:51 29° 68° (ENE) 22:06:41 145.980
CUTE 1.7 + AOD 2 18 Apr 22:02:59 22:05:18 14° 272° (W) 22:07:26 437.475
ANTELSAT 18 Apr 22:08:26 22:10:25 13° 87° (E) 22:12:39 437.575/2403.000
VERMONT LUNAR 18 Apr 22:12:21 22:15:38 47° 179° (S) 22:18:54 437.305
AISAT 18 Apr 22:13:18 22:17:25 41° 71° (ENE) 22:21:36 437.250
UKube-1 18 Apr 22:16:53 22:21:13 88° 256° (WSW) 22:25:34 .
Cosmos 2491 18 Apr 22:18:04 22:24:23 24° 81° (E) 22:31:03 435.465 / 435.565
ZACube-1 18 Apr 22:20:45 22:24:54 52° 261° (W) 22:29:12 437.345
CUBEBUG 2 18 Apr 22:21:45 22:25:40 34° 265° (W) 22:29:40 437.445
ESTCUBE 1 18 Apr 22:25:04 22:28:59 30° 69° (ENE) 22:32:58 437.505/2401.250
CUBEBUG 1 18 Apr 22:27:43 22:31:22 27° 68° (ENE) 22:35:04 437.445
YUBILEINY 18 Apr 22:27:56 22:36:36 59° 76° (ENE) 22:45:11 435.215
AAUSAT CUBESAT 2 18 Apr 22:35:32 22:36:13 10° 274° (W) 22:36:38 437.432
QB50P2 18 Apr 22:39:07 22:40:33 12° 88° (E) 22:42:15 145.880/145.840
Oscar 11 18 Apr 22:40:10 22:43:19 19° 269° (W) 22:46:22 145.826/435.025
50 SAT 18 Apr 22:41:53 22:45:52 86° 78° (ENE) 22:49:55 437.505
SPROUT 18 Apr 22:45:16 22:46:47 12° 62° (ENE) 22:48:31 437.525
HO-68 18 Apr 22:50:30 22:52:41 11° 278° (W) 22:54:16 435.675
DX 1 18 Apr 22:59:24 23:03:13 29° 264° (W) 23:07:01 434.975-435.025
DELFI C3 18 Apr 22:59:39 23:01:56 14° 271° (W) 23:04:02 145.870
TIGRISAT 18 Apr 23:00:49 23:05:18 41° 97° (E) 23:09:46 435.000
POPSAT HIP 1 18 Apr 23:01:02 23:04:10 20° 92° (E) 23:07:25 437.405
PHONESAT 2.4 18 Apr 23:01:17 23:04:45 48° 177° (S) 23:08:13 2401.200-2431.200
UNISAT 6 18 Apr 23:01:27 23:05:59 43° 98° (E) 23:10:28 437.425
NANOSAT C BR1 18 Apr 23:01:28 23:04:36 20° 92° (E) 23:07:50 145.865
SO-50 18 Apr 23:05:42 23:10:18 38° 243° (WSW) 23:14:49 436.795
UWE-3 18 Apr 23:06:17 23:08:53 15° 272° (W) 23:11:21 435.000/436.395/437.385
RS-15 18 Apr 23:19:44 23:30:39 48° 40° (NE) 23:42:08 29.354- 29.394
HUMSAT D 18 Apr 23:20:15 23:23:42 24° 267° (W) 23:27:09 437.325/437.525
O/OREOS (USA 219) 18 Apr 23:22:39 23:26:40 31° 105° (ESE) 23:30:44 437.305
POLYITAN 1 18 Apr 23:26:27 23:30:28 38° 97° (E) 23:34:31 437.675
VELOX 1 18 Apr 23:35:34 23:39:24 28° 265° (W) 23:43:11 145.980
DUCHIFAT 1 18 Apr 23:37:11 23:41:19 47° 99° (E) 23:45:28 145.980
ANTELSAT 18 Apr 23:43:04 23:47:49 73° 285° (WNW) 23:52:31 437.575/2403.000
QB50P1 18 Apr 23:49:28 23:53:44 67° 101° (E) 23:58:01 145.935-145.965
VERMONT LUNAR 18 Apr 23:49:49 23:52:54 33° 195° (SSW) 23:55:58 437.305
AISAT 18 Apr 23:51:00 23:54:15 19° 268° (W) 23:57:24 437.250
ITUPSAT 1 18 Apr 23:57:04 23:58:19 11° 59° (ENE) 23:59:49 437.325
ESTCUBE 1 19 Apr 00:01:55 00:05:52 28° 265° (W) 00:09:46 437.505/2401.250
CUBEBUG 1 19 Apr 00:03:53 00:07:42 29° 265° (W) 00:11:27 437.445
BUGSAT 1 19 Apr 00:07:04 00:11:11 74° 102° (ESE) 00:15:18 437.445
Cosmos 2491 19 Apr 00:11:43 00:20:26 76° 280° (W) 00:29:14 435.465 / 435.565
QB50P2 19 Apr 00:12:43 00:17:00 67° 286° (WNW) 00:21:15 145.880/145.840
Cosmos 2504 19 Apr 00:15:12 00:22:04 28° 64° (ENE) 00:28:43 435.465 / 435.565
TISAT 1 19 Apr 00:17:16 00:21:27 89° 77° (ENE) 00:25:40 437.305
SPROUT 19 Apr 00:18:05 00:22:21 74° 257° (WSW) 00:26:38 437.525
YUBILEINY 19 Apr 00:25:29 00:33:00 32° 276° (W) 00:40:16 435.215
BEESAT 19 Apr 00:30:11 00:33:52 23° 65° (ENE) 00:37:39 436.000
SWISSCUBE 19 Apr 00:31:09 00:35:00 25° 66° (ENE) 00:38:57 437.505
POPSAT HIP 1 19 Apr 00:36:14 00:40:13 38° 289° (WNW) 00:44:12 437.405
NANOSAT C BR1 19 Apr 00:36:38 00:40:37 38° 289° (WNW) 00:44:34 145.865
TIGRISAT 19 Apr 00:38:03 00:41:50 23° 294° (WNW) 00:45:29 435.000
UNISAT 6 19 Apr 00:38:48 00:42:30 23° 294° (WNW) 00:46:06 437.425
PHONESAT 2.4 19 Apr 00:39:25 00:42:45 37° 193° (SSW) 00:46:04 2401.200-2431.200
O/OREOS (USA 219) 19 Apr 01:02:03 01:06:06 29° 303° (WNW) 01:10:07 437.305
POLYITAN 1 19 Apr 01:02:53 01:06:12 21° 294° (WNW) 01:09:25 437.675
Oscar 19 19 Apr 01:10:39 01:14:02 18° 89° (E) 01:17:35 437.125/150
DUCHIFAT 1 19 Apr 01:13:58 01:16:50 17° 295° (WNW) 01:19:35 145.980
QB50P1 19 Apr 01:27:04 01:29:09 13° 297° (WNW) 01:31:03 145.935-145.965
VERMONT LUNAR 19 Apr 01:28:43 01:29:53 11° 210° (SSW) 01:30:57 437.305
ITUPSAT 1 19 Apr 01:30:42 01:35:30 83° 77° (ENE) 01:40:21 437.325
RS-15 19 Apr 01:32:21 01:43:40 63° 244° (WSW) 01:55:23 29.354- 29.394
AIST 1 19 Apr 01:33:33 01:37:49 60° 95° (E) 01:42:05
BUGSAT 1 19 Apr 01:44:47 01:46:10 11° 298° (WNW) 01:47:21 437.445
STARS 19 Apr 02:06:50 02:10:20 25° 67° (ENE) 02:13:58 437.465
BEESAT 19 Apr 02:06:55 02:11:29 43° 262° (W) 02:16:04 436.000
Cosmos 2504 19 Apr 02:08:03 02:16:16 64° 267° (W) 02:23:49 435.465 / 435.565
SWISSCUBE 19 Apr 02:08:12 02:12:42 39° 262° (W) 02:17:12 437.505
Cosmos 2491 19 Apr 02:13:42 02:19:13 17° 305° (NW) 02:24:18 435.465 / 435.565
PHONESAT 2.4 19 Apr 02:18:33 02:20:29 14° 209° (SSW) 02:22:21 2401.200-2431.200
KKS-1 19 Apr 02:29:03 02:33:25 64° 74° (ENE) 02:37:50 437.445
Oscar 19 19 Apr 02:48:43 02:53:53 61° 288° (WNW) 02:59:00 437.125/150
GONETS M04 19 Apr 02:49:58 02:56:12 21° 59° (ENE) 03:02:46
Gurwin Techsat 1B 19 Apr 02:51:27 02:56:27 41° 97° (E) 03:01:27 435.225
ITAMSAT 1 19 Apr 03:06:18 03:11:27 64° 101° (E) 03:16:36 435.822/435.867
ITUPSAT 1 19 Apr 03:12:32 03:14:08 11° 274° (W) 03:15:26 437.325
AIST 1 19 Apr 03:13:48 03:15:58 13° 294° (WNW) 03:17:57
JAS-2 19 Apr 03:18:27 03:21:03 13° 80° (E) 03:23:57 435.910
MOZHAYETS 4 19 Apr 03:38:15 03:41:56 24° 66° (ENE) 03:45:42
STARS 19 Apr 03:42:42 03:46:41 33° 264° (W) 03:50:40 437.465
RS-15 19 Apr 03:48:51 03:54:10 13° 263° (W) 03:58:28 29.354- 29.394
AUBIESAT-1 19 Apr 04:01:04 04:01:53 11° 52° (NE) 04:02:57 437.475
Cosmos 2504 19 Apr 04:05:41 04:07:59 11° 287° (WNW) 04:09:39 435.465 / 435.565
DANDE 19 Apr 04:06:42 04:11:59 26° 69° (ENE) 04:18:25 436.750
KKS-1 19 Apr 04:08:27 04:10:35 13° 272° (W) 04:12:31 437.445
BEESAT 2 19 Apr 04:12:10 04:15:27 24° 114° (ESE) 04:18:50 435.950
CUSAT 1 19 Apr 04:16:25 04:22:35 38° 72° (ENE) 04:29:58 437.405
BEESAT 3 19 Apr 04:20:05 04:23:45 34° 117° (ESE) 04:27:31 437.485
AIST 2 19 Apr 04:28:10 04:29:40 12° 110° (ESE) 04:31:23 435.215
AO-7 19 Apr 04:31:35 04:39:34 50° 100° (E) 04:47:37 29.400- 29.500
Gurwin Techsat 1B 19 Apr 04:31:46 04:36:18 28° 295° (WNW) 04:40:44 435.225
HORYU 2 19 Apr 04:38:12 04:42:45 85° 282° (WNW) 04:47:15 437.375
M-CUBED/EXP-1 PRIME 19 Apr 04:42:37 04:46:33 27° 61° (ENE) 04:50:40 437.505
GONETS M04 19 Apr 04:45:36 04:54:31 90° 276° (W) 05:03:23
ITAMSAT 1 19 Apr 04:46:56 04:50:32 19° 298° (WNW) 04:53:57 435.822/435.867
CUBESAT XI-V 19 Apr 04:55:20 04:57:23 13° 62° (ENE) 04:59:39 437.345
Cosmos 2499 19 Apr 04:59:39 05:05:28 22° 60° (ENE) 05:11:16 435.465 / 435.565
JAS-2 19 Apr 05:00:42 05:07:38 82° 103° (ESE) 05:13:40 435.910
MOZHAYETS 4 19 Apr 05:14:38 05:18:59 38° 263° (W) 05:23:20
STRAND 1 19 Apr 05:15:22 05:17:31 13° 59° (ENE) 05:19:54 437.568
PRISM 19 Apr 05:27:55 05:30:36 17° 65° (ENE) 05:33:24 437.425
AUBIESAT-1 19 Apr 05:31:11 05:35:51 67° 68° (ENE) 05:40:40 437.475
DANDE 19 Apr 05:49:06 05:55:35 67° 263° (W) 06:03:37 436.750
BEESAT 2 19 Apr 05:49:32 05:53:24 38° 312° (NW) 05:57:19 435.950
BEESAT 3 19 Apr 05:58:15 06:01:50 28° 315° (NW) 06:05:25 437.485
CUSAT 1 19 Apr 05:58:57 06:05:28 48° 266° (W) 06:13:05 437.405
AIST 2 19 Apr 06:03:27 06:07:43 76° 305° (NW) 06:12:03 435.215
M-CUBED/EXP-1 PRIME 19 Apr 06:16:47 06:21:14 40° 258° (WSW) 06:25:48 437.505
HORYU 2 19 Apr 06:17:54 06:18:44 10° 301° (WNW) 06:19:19 437.375
AO-7 19 Apr 06:24:38 06:32:18 42° 300° (WNW) 06:39:52 29.400- 29.500
CUBESAT XI-V 19 Apr 06:29:38 06:34:18 77° 259° (W) 06:38:57 437.345
CUTE-I 19 Apr 06:39:54 06:44:53 40° 97° (E) 06:49:53 437.470
GONETS M04 19 Apr 06:44:20 06:50:17 19° 282° (WNW) 06:55:45
JAS-2 19 Apr 06:46:59 06:51:49 20° 304° (NW) 06:56:06 435.910
Cubesat XI-IV 19 Apr 06:47:09 06:52:16 47° 99° (E) 06:57:24 437.490
STRAND 1 19 Apr 06:50:55 06:56:03 88° 82° (E) 07:01:13 437.568
Cosmos 2499 19 Apr 06:51:45 06:59:53 81° 265° (W) 07:07:21 435.465 / 435.565
PRISM 19 Apr 07:01:43 07:05:46 47° 261° (W) 07:09:49 437.425
AUBIESAT-1 19 Apr 07:08:16 07:11:08 15° 267° (W) 07:13:51 437.475
DANDE 19 Apr 07:35:32 07:38:22 12° 275° (W) 07:40:50 436.750
AIST 2 19 Apr 07:44:49 07:47:06 14° 326° (NW) 07:49:16 435.215
BRITE-PL 19 Apr 07:45:11 07:47:19 13° 88° (E) 07:49:48 437.365/2234.400
O/OREOS (USA 219) 19 Apr 07:53:58 07:54:57 11° 44° (NE) 07:56:08 437.305
GOMX 1 19 Apr 08:10:05 08:12:57 16° 89° (E) 08:16:08 467.674
CUTE-I 19 Apr 08:20:17 08:24:50 29° 295° (WNW) 08:29:17 437.470
AO-7 19 Apr 08:21:14 08:23:01 11° 322° (NW) 08:24:22 29.400- 29.500
HO-68 19 Apr 08:23:24 08:28:41 22° 90° (E) 08:34:12 435.675
Cosmos 2491 19 Apr 08:26:23 08:29:43 13° 50° (NE) 08:33:40 435.465 / 435.565
Cubesat XI-IV 19 Apr 08:27:49 08:32:08 25° 296° (WNW) 08:36:20 437.490
STRAND 1 19 Apr 08:34:17 08:36:05 11° 274° (W) 08:37:33 437.568
AAUSAT CUBESAT 2 19 Apr 08:40:16 08:41:06 11° 86° (E) 08:42:12 437.432
Cosmos 2499 19 Apr 08:47:27 08:51:42 15° 284° (WNW) 08:55:21 435.465 / 435.565
ANTELSAT 19 Apr 09:09:14 09:11:27 14° 62° (ENE) 09:13:54 437.575/2403.000
UWE-3 19 Apr 09:18:55 09:19:49 11° 85° (E) 09:21:02 435.000/436.395/437.385
DOVE 4 19 Apr 09:20:51 09:25:38 50° 99° (E) 09:30:40 437.250
BRITE-PL 19 Apr 09:21:34 09:26:23 77° 283° (WNW) 09:31:34 437.365/2234.400
CINEMA 3 19 Apr 09:22:35 09:26:44 28° 94° (E) 09:31:04 145.822/145.860
COMPASS 1 19 Apr 09:24:25 09:28:23 38° 97° (E) 09:32:20 437.405
PCSat 19 Apr 09:24:50 09:29:35 33° 111° (ESE) 09:34:27 145.827
O/OREOS (USA 219) 19 Apr 09:30:46 09:35:18 76° 65° (ENE) 09:39:47 437.305
CANX-2 19 Apr 09:34:07 09:38:27 82° 101° (E) 09:42:44 2200.000
QB50P2 19 Apr 09:34:12 09:35:37 12° 62° (ENE) 09:37:13 145.880/145.840
SEEDS 19 Apr 09:38:10 09:42:26 68° 100° (E) 09:46:40 437.485
YUBILEINY 19 Apr 09:40:48 09:43:23 12° 74° (ENE) 09:46:39 435.215
CUTE 1.7 + AOD 2 19 Apr 09:44:25 09:48:44 85° 287° (WNW) 09:53:01 437.475
FUNcube-1 19 Apr 09:46:34 09:49:27 17° 89° (E) 09:52:28 145.935
GOMX 1 19 Apr 09:46:40 09:51:31 66° 285° (WNW) 09:56:41 467.674
POPSAT HIP 1 19 Apr 09:55:42 09:58:36 19° 65° (ENE) 10:01:38 437.405
NANOSAT C BR1 19 Apr 09:55:54 09:58:47 19° 66° (ENE) 10:01:49 145.865
TIGRISAT 19 Apr 10:00:55 10:05:05 41° 71° (ENE) 10:09:24 435.000
UNISAT 6 19 Apr 10:01:46 10:05:59 44° 71° (ENE) 10:10:21 437.425
UKube-1 19 Apr 10:04:42 10:06:53 14° 89° (E) 10:09:15 .
ZACube-1 19 Apr 10:08:09 10:12:05 28° 94° (E) 10:16:05 437.345
HO-68 19 Apr 10:09:59 10:17:11 73° 290° (WNW) 10:24:19 435.675
CUBEBUG 2 19 Apr 10:10:46 10:15:19 45° 98° (E) 10:19:54 437.445
AAUSAT CUBESAT 2 19 Apr 10:13:06 10:17:19 70° 285° (WNW) 10:21:29 437.432
Cosmos 2491 19 Apr 10:20:22 10:29:05 60° 76° (ENE) 10:37:48 435.465 / 435.565
POLYITAN 1 19 Apr 10:20:57 10:24:45 34° 70° (ENE) 10:28:37 437.675
Oscar 11 19 Apr 10:24:35 10:28:59 72° 103° (ESE) 10:33:18 145.826/435.025
DUCHIFAT 1 19 Apr 10:30:57 10:34:53 42° 71° (ENE) 10:38:53 145.980
DELFI C3 19 Apr 10:35:38 10:39:43 74° 102° (ESE) 10:43:44 145.870
ANTELSAT 19 Apr 10:43:15 10:47:43 70° 259° (W) 10:52:18 437.575/2403.000
QB50P1 19 Apr 10:43:26 10:47:34 59° 73° (ENE) 10:51:45 145.935-145.965
DX 1 19 Apr 10:45:49 10:49:56 40° 98° (E) 10:54:03 434.975-435.025
UWE-3 19 Apr 10:52:21 10:57:03 85° 284° (WNW) 11:01:45 435.000/436.395/437.385
BUGSAT 1 19 Apr 10:58:26 11:02:24 60° 74° (ENE) 11:06:24 437.445
DOVE 4 19 Apr 10:59:22 11:03:08 22° 294° (WNW) 11:06:55 437.250
CINEMA 3 19 Apr 10:59:32 11:03:59 36° 290° (WNW) 11:08:30 145.822/145.860
COMPASS 1 19 Apr 11:00:42 11:03:51 20° 294° (WNW) 11:06:55 437.405
HUMSAT D 19 Apr 11:02:06 11:06:20 49° 99° (E) 11:10:33 437.325/437.525
BRITE-PL 19 Apr 11:03:30 11:04:19 10° 299° (WNW) 11:04:52 437.365/2234.400
QB50P2 19 Apr 11:06:47 11:10:59 75° 258° (WSW) 11:15:14 145.880/145.840
PCSat 19 Apr 11:07:50 11:12:56 40° 310° (NW) 11:18:03 145.827
CANX-2 19 Apr 11:12:30 11:13:48 11° 299° (WNW) 11:14:54 2200.000
O/OREOS (USA 219) 19 Apr 11:12:48 11:14:09 11° 261° (W) 11:15:13 437.305
SEEDS 19 Apr 11:15:46 11:17:44 13° 297° (WNW) 11:19:33 437.485
FUNcube-1 19 Apr 11:21:40 11:26:09 53° 287° (WNW) 11:30:37 145.935
VELOX 1 19 Apr 11:24:01 11:28:18 48° 99° (E) 11:32:36 145.980
YUBILEINY 19 Apr 11:29:58 11:38:38 65° 93° (E) 11:47:21 435.215
POPSAT HIP 1 19 Apr 11:30:15 11:34:14 41° 262° (W) 11:38:15 437.405
NANOSAT C BR1 19 Apr 11:30:24 11:34:23 41° 262° (W) 11:38:24 145.865
TIGRISAT 19 Apr 11:38:42 11:42:04 20° 269° (W) 11:45:23 435.000
AISAT 19 Apr 11:38:49 11:43:16 72° 102° (ESE) 11:47:43 437.250
UKube-1 19 Apr 11:39:12 11:43:27 57° 288° (WNW) 11:47:41 .
UNISAT 6 19 Apr 11:39:45 11:43:03 19° 270° (W) 11:46:16 437.425
AIST 1 19 Apr 11:40:15 11:43:03 17° 68° (ENE) 11:45:57
ZACube-1 19 Apr 11:44:22 11:48:28 32° 291° (WNW) 11:52:31 437.345
CUBEBUG 2 19 Apr 11:48:05 11:51:45 22° 294° (WNW) 11:55:20 437.445
CUBEBUG 1 19 Apr 11:50:45 11:54:55 44° 99° (E) 11:59:06 437.445
ESTCUBE 1 19 Apr 11:52:33 11:56:57 53° 100° (E) 12:01:21 437.505/2401.250
50 SAT 19 Apr 11:52:38 11:56:43 71° 285° (WNW) 12:00:44 437.505
POLYITAN 1 19 Apr 11:57:28 12:00:48 22° 267° (W) 12:04:03 437.675
HO-68 19 Apr 11:59:34 12:03:50 16° 309° (NW) 12:07:47 435.675
TISAT 1 19 Apr 12:02:19 12:04:08 13° 89° (E) 12:06:11 437.305
Oscar 11 19 Apr 12:02:38 12:04:38 13° 298° (WNW) 12:06:26 145.826/435.025
SPROUT 19 Apr 12:04:26 12:07:17 18° 91° (E) 12:10:17 437.525
DUCHIFAT 1 19 Apr 12:08:03 12:10:58 18° 269° (W) 12:13:46 145.980
DELFI C3 19 Apr 12:13:08 12:14:20 11° 298° (WNW) 12:15:20 145.870
Cosmos 2491 19 Apr 12:17:58 12:25:31 32° 276° (W) 12:32:52 435.465 / 435.565
QB50P1 19 Apr 12:21:56 12:23:55 13° 272° (W) 12:25:42 145.935-145.965
DX 1 19 Apr 12:22:40 12:25:58 21° 294° (WNW) 12:29:09 434.975-435.025
Oscar 19 19 Apr 12:28:31 12:32:55 30° 66° (ENE) 12:37:25 437.125/150
BEESAT 2 19 Apr 12:29:46 12:33:16 26° 44° (NE) 12:36:46 435.950
UWE-3 19 Apr 12:31:36 12:32:55 11° 300° (WNW) 12:34:01 435.000/436.395/437.385
BUGSAT 1 19 Apr 12:36:53 12:38:22 11° 272° (W) 12:39:37 437.445
BEESAT 3 19 Apr 12:37:31 12:41:18 34° 47° (NE) 12:45:02 437.485
Gurwin Techsat 1B 19 Apr 12:38:31 12:39:55 11° 57° (ENE) 12:41:36 435.225
HUMSAT D 19 Apr 12:38:49 12:41:46 18° 295° (WNW) 12:44:35 437.325/437.525
AIST 2 19 Apr 12:46:31 12:49:16 17° 37° (NE) 12:52:04 435.215
ITAMSAT 1 19 Apr 12:48:54 12:51:54 16° 60° (ENE) 12:55:06 435.822/435.867
Cosmos 2504 19 Apr 12:55:28 13:01:49 24° 81° (E) 13:08:31 435.465 / 435.565
PCSat 19 Apr 12:57:05 12:58:00 10° 333° (NNW) 12:58:46 145.827
VELOX 1 19 Apr 13:01:27 13:04:34 19° 296° (WNW) 13:07:34 145.980
AIST 1 19 Apr 13:16:56 13:20:59 42° 267° (W) 13:24:59
AISAT 19 Apr 13:17:11 13:19:22 13° 298° (WNW) 13:21:23 437.250
SO-50 19 Apr 13:20:52 13:25:22 53° 119° (ESE) 13:30:05 436.795
CUBEBUG 1 19 Apr 13:27:54 13:31:01 19° 295° (WNW) 13:34:00 437.445
YUBILEINY 19 Apr 13:28:32 13:36:12 31° 295° (WNW) 13:43:39 435.215
ESTCUBE 1 19 Apr 13:30:29 13:33:28 17° 296° (WNW) 13:36:19 437.505/2401.250
ITUPSAT 1 19 Apr 13:30:59 13:34:19 19° 91° (E) 13:37:47 437.325
JAS-2 19 Apr 13:33:55 13:35:46 11° 49° (NE) 13:38:03 435.910
TISAT 1 19 Apr 13:36:12 13:40:23 59° 286° (WNW) 13:44:33 437.305
SPROUT 19 Apr 13:39:31 13:43:38 44° 288° (WNW) 13:47:45 437.525
AO-7 19 Apr 13:43:16 13:48:26 19° 48° (NE) 13:53:53 29.400- 29.500
RS-15 19 Apr 13:50:22 13:56:42 19° 100° (E) 14:03:47 29.354- 29.394
ISS 19 Apr 14:01:58 14:04:29 21° 136° (SE) 14:07:03 145.825
HORYU 2 19 Apr 14:04:12 14:06:00 13° 61° (ENE) 14:08:01 437.375
BEESAT 19 Apr 14:05:39 14:10:10 42° 98° (E) 14:14:42 436.000
SWISSCUBE 19 Apr 14:06:53 14:11:29 47° 99° (E) 14:16:05 437.505
Oscar 19 19 Apr 14:07:27 14:12:11 36° 263° (W) 14:16:57 437.125/150
BEESAT 2 19 Apr 14:07:40 14:11:30 37° 243° (WSW) 14:15:15 435.950
Gurwin Techsat 1B 19 Apr 14:13:47 14:19:04 73° 74° (ENE) 14:24:24 435.225
BEESAT 3 19 Apr 14:15:45 14:19:13 26° 245° (WSW) 14:22:34 437.485
KKS-1 19 Apr 14:21:13 14:22:29 11° 87° (E) 14:24:02 437.445
AIST 2 19 Apr 14:24:09 14:28:25 77° 239° (WSW) 14:32:35 435.215
ITAMSAT 1 19 Apr 14:25:40 14:30:52 76° 256° (WSW) 14:36:05 435.822/435.867
Cosmos 2504 19 Apr 14:45:30 14:54:22 81° 279° (W) 15:03:18 435.465 / 435.565
SO-50 19 Apr 15:02:15 15:06:15 26° 320° (NW) 15:10:16 436.795
ITUPSAT 1 19 Apr 15:07:55 15:12:33 49° 289° (WNW) 15:17:06 437.325
JAS-2 19 Apr 15:11:51 15:19:12 48° 67° (ENE) 15:26:34 435.910
STARS 19 Apr 15:30:42 15:34:52 39° 98° (E) 15:39:03 437.465
AO-7 19 Apr 15:31:47 15:40:00 73° 68° (ENE) 15:48:17 29.400- 29.500
ISS 19 Apr 15:37:25 15:40:39 55° 333° (NNW) 15:43:52 145.825
HORYU 2 19 Apr 15:37:36 15:42:05 78° 257° (WSW) 15:46:37 437.375
BEESAT 19 Apr 15:44:02 15:47:49 23° 295° (WNW) 15:51:28 436.000
SWISSCUBE 19 Apr 15:45:28 15:49:04 21° 296° (WNW) 15:52:31 437.505
GONETS M04 19 Apr 15:54:36 16:00:33 22° 80° (E) 16:06:53
KKS-1 19 Apr 15:55:16 15:59:45 75° 285° (WNW) 16:04:13 437.445
RS-15 19 Apr 15:56:34 16:07:24 79° 120° (ESE) 16:18:33 29.354- 29.394
Gurwin Techsat 1B 19 Apr 15:56:34 15:59:43 15° 272° (W) 16:02:37 435.225
CUTE-I 19 Apr 16:27:24 16:29:04 12° 57° (ENE) 16:31:01 437.470
Cubesat XI-IV 19 Apr 16:33:59 16:36:27 14° 58° (ENE) 16:39:09 437.490
Cosmos 2504 19 Apr 16:43:14 16:49:27 19° 303° (WNW) 16:55:13 435.465 / 435.565
JAS-2 19 Apr 16:56:57 17:04:16 42° 265° (W) 17:11:33 435.910
STARS 19 Apr 17:07:39 17:11:08 22° 294° (WNW) 17:14:31 437.465
MOZHAYETS 4 19 Apr 17:08:10 17:12:35 45° 98° (E) 17:17:00
ISS 19 Apr 17:14:54 17:17:30 22° 352° (N) 17:20:07 145.825
AO-7 19 Apr 17:26:55 17:33:38 26° 269° (W) 17:40:07 29.400- 29.500
CUSAT 1 19 Apr 17:29:34 17:31:43 17° 85° (E) 17:34:19 437.405
Cosmos 2499 19 Apr 17:39:20 17:44:19 18° 78° (ENE) 17:49:48 435.465 / 435.565
GONETS M04 19 Apr 17:47:39 17:56:26 83° 279° (W) 18:05:19
M-CUBED/EXP-1 PRIME 19 Apr 17:58:57 18:01:21 15° 93° (E) 18:03:49 437.505
CUTE-I 19 Apr 18:03:03 18:08:21 75° 74° (ENE) 18:13:42 437.470
Cubesat XI-IV 19 Apr 18:10:30 18:15:51 88° 79° (ENE) 18:21:15 437.490
PCSat 19 Apr 18:10:49 18:15:53 38° 49° (NE) 18:20:56 145.827
RS-15 19 Apr 18:10:54 18:21:00 39° 328° (NNW) 18:31:19 29.354- 29.394
CUBESAT XI-V 19 Apr 18:25:36 18:29:16 24° 93° (E) 18:33:01 437.345
PRISM 19 Apr 18:43:28 18:46:32 21° 93° (E) 18:49:41 437.425
MOZHAYETS 4 19 Apr 18:46:05 18:49:33 21° 295° (WNW) 18:52:53
AUBIESAT-1 19 Apr 18:46:34 18:50:45 41° 102° (ESE) 18:54:37 437.475
ISS 19 Apr 18:51:52 18:54:37 24° 12° (NNE) 18:57:21 145.825
HO-68 19 Apr 18:54:26 18:59:28 22° 55° (NE) 19:04:45 435.675
BRITE-PL 19 Apr 18:58:32 19:00:40 14° 63° (ENE) 19:02:59 437.365/2234.400
